星链-34416 (STARLINK-34416)

导读

STARLINK-34416是美国于2025年6月25日发射的Starlink星座卫星,属于SpaceX打造的低轨互联网卫星星座项目。该卫星主要为全球偏远地区、海洋船舶以及高需求区域提供高速低延迟宽带互联网服务,依托低轨部署,大幅降低通信延迟,助力全球网络覆盖,推动全球互联互通。

基本信息
目录编号:
64619
目录名称:
STARLINK-34416
国际标识:
2025-137AB
轨道中心:
EARTH
卫星名称:
星链-34416
卫星全名:
星链-34416 (STARLINK-34416)
卫星状态:
在轨 (已飞行354 天)
发射日期:
2025-06-25 UTC
国别 :
美国 (US)
星等 :
--
轨道信息
数据来源 国际轨道数据
星历时间: 2026-06-13T21:23:59+0800
10小时前
查看轨道信息
半长轴: 6853.331km
偏心率: 0.0001134
轨道倾角: 53.160°
近地点辐角 80.725°
升交点赤经 249.869°
平近点角 279.388°
近地点: 474.416km
远地点: 475.972km
周期: 94.105分钟
每日圈数: 15.302072
详细信息
固有亮度:
5
最大亮度:
2.5
卫星平台:
Starlink V1.0
覆盖范围:
全球
运营商:
太空探索技术公司
运营商所在国:
美国
制造商(研发单位):
太空探索技术公司
制造商所在国:
美国
使用方式:
暂无
卫星简介
Starlink 计划是 SpaceX 推出的全球卫星互联网项目,通过发射低轨道卫星,为全球尤其是偏远地区提供高速、低延迟的互联网服务。自 2019 年起,Starlink 已部署数千颗卫星,旨在缩小全球数字鸿沟,推动互联网普及。该项目还为军事、航空等行业提供通信支持,带来广泛经济效益。
2D轨道图
3D轨道图
轨道高度分析图
轨道倾角分析图
轨道综合分析图
查看轨道综合分析图